Regional Weather Roundup
Issued by NWS

Home | Current Version | Previous Version | Text Only | Print | Product List | Glossary On
Versions: 1 2 3 4 5 6 7 8 9 10 11 12 13 14 15 16 17 18 19 20 21 22 23 24 25 26 27 28 29 30 31 32 33 34 35 36 37 38 39 40 41 42 43 44 45 46 47 48 49 50
000
ASUS43 KIND 310109
RWRIN

WEATHER ROUNDUP FOR INDIANA
NATIONAL WEATHER SERVICE INDIANAPOLIS IN
900 PM EDT SAT AUG 30 2014

NOTE: "FAIR" INDICATES FEW OR NO CLOUDS BELOW 12,000 FEET WITH NO
SIGNIFICANT WEATHER AND/OR OBSTRUCTIONS TO VISIBILITY.

* - STATION DOES NOT REPORT WEATHER SUCH AS PRECIPITATION OR FOG.

+ - STATION NOT QUALITY CONTROLLED BY THE NATIONAL WEATHER SERVICE.
    USE DATA WITH CAUTION...ESPECIALLY DEWPOINT AND RELATIVE
    HUMIDITY OBSERVATIONS.

INZ001>003-010>013-019-020-310200-
NORTHWEST INDIANA

CITY           SKY/WX    TMP DP  RH WIND       PRES   REMARKS
GARY /AIRPORT/ MOCLDY    75  72  88 S5        29.89R
KNOX *+        CLOUDY    75  70  86 SW6       29.90R
LA PORTE +     CLOUDY    74  72  94 SW5       29.91R THUNDER
MICHIGAN CITY+ HVY RAIN  70  68  94 S9G16     29.90R
MONTICELLO +   MOCLDY    75  70  85 S9        29.92S
RENSSELAER +   TSTM      72  70  94 W10G18    29.93R
VALPARAISO     HVY RAIN  73  70  90 W9        29.92R FOG

$$

LMZ046-743>745-310200-
SOUTHERN LAKE MICHIGAN

STATION/POSITION TIME  TEMP WIND        PRES
                       AIR  DIR/SP/G
                 (UTC) (F)  (DEG/KT/KT) (MB)
MICHIGAN CITY    0100   74  180/ 13/ 18   N/A

$$

INZ004-005-014>016-021>024-310200-
NORTH CENTRAL INDIANA

CITY           SKY/WX    TMP DP  RH WIND       PRES   REMARKS
GOSHEN         CLOUDY    77  70  79 S14       29.91R
LOGANSPORT +   CLOUDY    73  66  78 S12       29.95S
PERU/GRISSOM   CLOUDY    75  73  95 S10       29.95R
ROCHESTER +    CLOUDY    77  70  78 S12       29.94R
SOUTH BEND     LGT RAIN  74  71  91 N9        29.91R
WARSAW +       CLOUDY    75  68  78 SW6G18    29.92S

$$

INZ006>009-017-018-025>027-310200-
NORTHEAST INDIANA

CITY           SKY/WX    TMP DP  RH WIND       PRES   REMARKS
ANGOLA *+      CLEAR     77  70  78 SW13      29.93R
AUBURN +       CLOUDY    77  66  69 SW10G16   29.95R
FORT WAYNE     CLOUDY    75  69  81 SW15      29.96R
HUNTINGTON +   CLOUDY    74  70  85 S6        29.96R

$$

INZ028-029-035-036-043>045-051>053-310200-
WEST CENTRAL INDIANA

CITY           SKY/WX    TMP DP  RH WIND       PRES   REMARKS
GREENCASTLE +  CLOUDY    72  70  94 S3        29.99R
LAFAYETTE      MOCLDY    75  70  84 S9        29.93R
TERRE HAUTE    CLOUDY    75  70  84 S15       29.97R

$$

INZ030>032-037>040-046>048-054>057-064-065-310200-
CENTRAL INDIANA

CITY           SKY/WX    TMP DP  RH WIND       PRES   REMARKS
CP ATTERBURY + CLOUDY    73  68  83 S8        30.01R
COLUMBUS       MOCLDY    73  70  88 S15G22    30.01R
FRANKFORT +    CLOUDY    73  70  88 S6        29.97R
GREENWOOD *+   CLOUDY    75  72  88 S9        30.00S
INDIANAPOLIS   CLOUDY    75  70  84 S14       29.97R
-EAGLE CREEK   CLOUDY    75  69  81 S7        29.98R
KOKOMO *+      CLOUDY    75  68  78 S12       29.95F
MARION +       CLOUDY    74  69  83 S12       29.97S
MT COMFORT *+  CLOUDY    73  73 100 S8        29.99S
SHELBYVILLE    CLOUDY    75  70  84 S9        30.00R
ZIONSVILLE +   CLOUDY    76  68  77 S12       29.98S

$$

INZ033-034-041-042-049-050-058-059-310200-
EAST CENTRAL INDIANA

CITY           SKY/WX    TMP DP  RH WIND       PRES   REMARKS
MUNCIE         CLOUDY    76  69  79 S12G18    29.99R

$$

INZ060-061-067>069-081>083-085>088-310200-
SOUTHWEST INDIANA

CITY           SKY/WX    TMP DP  RH WIND       PRES   REMARKS
EVANSVILLE     CLOUDY    72  69  90 S5        30.00R
WASHINGTON +   CLOUDY    71  70  98 S6        29.99R

$$

INZ062-063-066-070>080-084-089>092-310200-
SOUTH CENTRAL AND SOUTHEAST INDIANA

CITY           SKY/WX    TMP DP  RH WIND       PRES   REMARKS
BLOOMINGTON    CLOUDY    73  68  84 S10       30.00R
NORTH VERNON + CLOUDY    73  73 100 S5        30.02

$$



USA.gov is the U.S. government's official web portal to all federal, state and local government web resources and services.